Home   Weather   Tananger   Past weeks

Flag for Norway Past Weather in Tananger, Norway — Yesterday and Last 2 Weeks

Now
37 °F

Scattered clouds.


Feels Like: 35 °F
Forecast: 44 / 50 °F
Wind: 3 mph from Southeast

Location: Stavanger / Sola

Current Time: Dec 6, 2016 at 3:10:33 pm

Latest Report: Dec 6, 2016 at 2:20 pm


Visibility: N/A

Pressure: 30.36 "Hg

Humidity: 75%

Dew Point: 30 °F

Location of TanangerLocation

Past Weather in Tananger — Graph

°F

Tananger Temperature Yesterday

Maximum temperature yesterday: 45 °F (at 12:20 am)
Minimum temperature yesterday: 41 °F (at 10:20 pm)
Average temperature yesterday: 44 °F

High & Low Weather Summary for the Past Weeks

 TemperatureHumidityPressure
High50 °F (Nov 22, 12:20 pm)100% (Nov 23, 2:50 am)30.51 "Hg (Nov 23, 2:50 am)
Low25 °F (Nov 28, 4:50 am)61% (Nov 26, 3:50 pm)29.47 "Hg (Nov 22, 2:50 am)
Average41 °F85%30.12 "Hg
* Reported Nov 21 1:20 pm — Dec 6 1:50 pm, Tananger, Weather by CustomWeather, © 2016

Note: Actual official high and low records may vary slightly from our data, if they occured in-between our weather recording intervals... More about our weather records

Advertising

Tananger Weather History for the Previous 24 Hours

Scroll right to see more
 ConditionsComfort  
Time TempWeatherWind HumidityBarometerVisibility
1:50 pm
Tue, Dec 6
37 °FPassing clouds.5 mph81%30.36 "HgN/A
1:20 pm37 °FPassing clouds.2 mph75%30.36 "HgN/A
12:50 pm39 °FPassing clouds.3 mph75%30.36 "HgN/A
12:20 pm37 °FSunny.2 mph81%30.36 "Hg10 mi
11:50 am37 °FSunny.5 mph81%30.36 "Hg10 mi
11:20 am36 °FSunny.6 mph87%30.36 "Hg10 mi
10:50 am34 °FSunny.1 mph100%30.36 "Hg10 mi
10:20 am32 °FSunny.3 mph100%30.36 "Hg10 mi
9:50 am32 °FSunny.5 mph100%30.36 "Hg10 mi
9:20 am32 °FSunny.3 mph93%30.33 "Hg10 mi
8:50 am32 °FPassing clouds.3 mph100%30.33 "HgN/A
8:20 am32 °FClear.2 mph100%30.33 "Hg10 mi
7:50 am32 °FClear.8 mph93%30.33 "Hg10 mi
7:20 am32 °FClear.7 mph93%30.33 "Hg10 mi
6:50 am32 °FClear.3 mph93%30.33 "HgN/A
6:20 am30 °FPassing clouds.3 mph93%30.30 "HgN/A
5:50 am32 °FPassing clouds.3 mph93%30.30 "HgN/A
5:20 am32 °FPassing clouds.3 mph93%30.30 "HgN/A
4:50 am30 °FPassing clouds.3 mph100%30.30 "HgN/A
3:50 am34 °FPassing clouds.3 mph93%30.27 "HgN/A
2:50 am36 °FPassing clouds.No wind87%30.27 "HgN/A
1:50 am36 °FPassing clouds.3 mph87%30.27 "HgN/A
12:50 am39 °FPassing clouds.6 mph81%30.24 "HgN/A
12:20 am39 °FPassing clouds.9 mph87%30.24 "HgN/A
11:50 pm
Mon, Dec 5
41 °FPassing clouds.12 mph81%30.24 "HgN/A
11:20 pm41 °FPassing clouds.8 mph81%30.24 "HgN/A
10:50 pm41 °FPassing clouds.9 mph81%30.24 "HgN/A
10:20 pm41 °FPassing clouds.8 mph87%30.24 "HgN/A
9:50 pm43 °FPassing clouds.13 mph81%30.24 "HgN/A
9:20 pm43 °FPassing clouds.8 mph87%30.24 "HgN/A
8:50 pm45 °FPassing clouds.7 mph87%30.21 "HgN/A
8:20 pm45 °FPartly cloudy.10 mph93%30.21 "HgN/A
7:50 pm45 °FPartly cloudy.10 mph93%30.21 "HgN/A
7:20 pm45 °FFog.17 mph100%30.21 "Hg3 mi
6:50 pm45 °FPartly cloudy.17 mph93%30.21 "Hg5 mi
6:20 pm45 °FPartly cloudy.16 mph93%30.21 "HgN/A
5:50 pm45 °FPartly cloudy.17 mph93%30.21 "HgN/A
5:20 pm45 °FPartly cloudy.16 mph93%30.21 "HgN/A
4:50 pm45 °FPassing clouds.14 mph87%30.21 "HgN/A
4:20 pm45 °FPartly cloudy.15 mph87%30.21 "HgN/A
3:50 pm45 °FPartly cloudy.14 mph87%30.21 "HgN/A
3:20 pm45 °FBroken clouds.15 mph87%30.21 "HgN/A
Weather by CustomWeather, © 2016

See weather overviewHow to use our weather pages